Location: Arbon
(43.0005°N, 0.7472°E)
Time: 10:02:37
(UTC+00:00)

Vanguard 2 Rocket - Pass Details

Date: 27 November 2020
Orbit: 554 x 3325 km, 32.9° (Epoch: 21 January)

Event Time Altitude Azimuth Distance (km) Brightness Sun altitude
Rises 15:10:47 0° 274° (W) 5,859 11.7 10.2°
Reaches altitude 10° 15:18:21 10° 249° (WSW) 4,071 11.9 9.1°
Maximum altitude 15:21:44 12° 230° (SW) 3,532 13.5 8.7°
Drops below altitude 10° 15:24:38 10° 210° (SSW) 3,352 11.4 8.3°
Sets 15:29:18 0° 179° (S) 3,766 10.7 7.6°
